SCP
0 1 1 1 0 0 0 0 0 0 0 0 0 0 0 0 0 0 0 0 0 0 0 0 0 0 0 0 0 0 0 0 0 0 0 0 0 0 0 0 0 0 0
1 1 1 1 0 0 0 0 0 0 0 0 0 0 0 0 0 0 0 0 0 0 0 0 0 0 0 0 0 0 0 0 0 0 0 0 0 0 0 0 0 0 0
1 1 1 0 0 0 0 0 0 0 0 0 0 0 0 0 0 0 0 0 0 0 0 0 0 0 0 0 0 0 0 0 0 0 0 0 0 0 0 0 0 0 0
1 1 1 0 0 0 0 0 0 0 0 0 0 0 0 0 0 0 0 0 0 0 0 0 0 0 0 0 0 0 0 0 0 0 0 0 0 0 0 0 0 0 0
0 0 0 0 0 0 0 0 0 0 0 0 0 0 0 0 0 0 0 0 0 0 0 0 0 0 0 0 0 0 0 0 0 0 0 0 0 0 0 0 0 0 0
0 0 0 0 0 0 0 0 0 0 0 0 0 0 0 0 0 0 0 0 0 0 0 0 0 0 0 0 0 0 0 0 0 0 0 0 0 0 0 0 0 0 0
0 0 0 0 0 0 0 0 0 0 0 0 0 0 0 0 0 0 0 0 0 0 0 0 0 0 0 0 0 0 0 0 0 0 0 0 0 0 0 0 0 0 0
0 0 0 0 0 0 0 0 0 0 0 0 0 0 0 0 0 0 0 0 0 0 0 0 0 0 0 0 0 0 0 0 0 0 0 0 0 0 0 0 0 0 0
0 0 0 0 0 0 0 0 0 0 0 0 0 0 0 0 0 0 0 0 0 0 0 0 0 0 0 0 0 0 0 0 0 0 0 0 0 0 0 0 0 0 0
0 0 0 0 0 0 0 0 0 0 0 0 0 0 0 0 0 0 0 0 0 0 0 0 0 0 0 0 0 0 0 0 0 0 0 0 0 0 0 0 0 0 0
0 0 0 0 0 0 0 0 0 0 0 0 0 0 0 0 0 0 0 0 0 0 0 0 0 0 0 0 0 0 0 0 0 0 0 0 0 0 0 0 0 0 0
0 0 0 0 0 0 0 0 0 0 0 0 0 0 0 0 0 0 0 0 0 0 0 0 0 0 0 0 0 0 0 0 0 0 0 0 0 0 0 0 0 0 0
0 0 0 0 0 0 0 0 0 0 0 0 0 0 0 0 0 0 0 0 0 0 0 0 0 0 0 0 0 0 0 0 0 0 0 0 0 0 0 0 0 0 0
0 0 0 0 0 0 0 0 0 0 0 0 0 0 0 0 0 0 0 0 0 0 0 0 0 0 0 0 0 0 0 0 0 0 0 0 0 0 0 0 0 0 0
0 0 0 0 0 0 0 0 0 0 0 0 0 0 0 0 0 0 0 0 0 0 0 0 0 0 0 0 0 0 0 0 0 0 0 0 0 0 0 0 0 0 0
0 0 0 0 0 0 0 0 0 0 0 0 0 0 0 0 0 0 0 0 0 0 0 0 0 0 0 0 0 0 0 0 0 0 0 0 0 0 0 0 0 0 0
0 0 0 0 0 0 0 0 0 0 0 0 0 0 0 0 0 0 0 0 0 0 0 0 0 0 0 0 0 0 0 0 0 0 0 0 0 0 0 0 0 0 0
0 0 0 0 0 0 0 0 0 0 0 0 0 0 0 0 0 0 0 0 0 0 0 0 0 0 0 0 0 0 0 0 0 0 0 0 0 0 0 0 0 0 0
0 0 0 0 0 0 0 0 0 0 0 0 0 0 0 0 0 0 0 0 0 0 0 0 0 0 0 0 0 0 0 0 0 0 0 0 0 0 0 0 0 0 0
0 0 0 0 0 0 0 0 0 0 0 0 0 0 0 0 0 0 0 0 0 0 0 0 0 0 0 0 0 0 0 0 0 0 0 0 0 0 0 0 0 0 0
0 0 0 0 0 0 0 0 0 0 0 0 0 0 0 0 0 0 0 0 0 0 0 0 0 0 0 0 0 0 0 0 0 0 0 0 0 0 0 0 0 0 0
0 0 0 0 0 0 0 0 0 0 0 0 0 0 0 0 0 0 0 0 0 0 0 0 0 0 0 0 0 0 0 0 0 0 0 0 0 0 0 0 0 0 0
0 0 0 0 0 0 0 0 0 0 0 0 0 0 0 0 0 0 0 0 0 0 0 0 0 0 0 0 0 0 0 0 0 0 0 0 0 0 0 0 0 0 0
0 0 0 0 0 0 0 0 0 0 0 0 0 0 0 0 0 0 0 0 0 0 0 0 0 0 0 0 0 0 0 0 0 0 0 0 0 0 0 0 0 0 0
0 0 0 0 0 0 0 0 0 0 0 0 0 0 0 0 0 0 0 0 0 0 0 0 0 0 0 0 0 0 0 0 0 0 0 0 0 0 0 0 0 0 0
0 0 0 0 0 0 0 0 0 0 0 0 0 0 0 0 0 0 0 0 0 0 0 0 0 0 0 0 0 0 0 0 0 0 0 0 0 0 0 0 0 0 0
Wind_Speed
3 3 3 3 2 2 3 4 4 3 3 4 4 4 4 4 4 4 4 4 4 4 3 4 4 4 3 3 2 2 2 3 3 2 1 1 1 1 2 1 2 2 2
3 3 3 3 3 3 3 4 4 4 4 4 4 4 4 4 4 5 5 5 5 5 5 5 4 3 4 4 3 4 3 3 3 3 2 1 2 2 1 2 2 2 2
3 3 3 3 3 4 4 3 3 4 4 4 4 4 4 4 4 5 5 5 6 6 5 6 6 5 5 4 4 4 3 3 3 3 2 1 1 1 0 1 1 1 2
2 2 3 3 4 3 3 3 3 3 4 4 4 4 4 4 5 5 5 5 5 5 6 6 6 6 6 6 5 5 4 3 3 3 2 2 2 1 1 1 1 2 2
2 3 3 3 3 2 2 3 3 3 4 4 4 4 4 4 5 5 5 5 5 5 5 6 6 8 8 7 5 5 5 4 3 3 3 2 3 2 3 2 2 1 2
2 3 3 3 3 2 2 2 2 3 3 3 4 4 4 4 6 9 7 5 5 6 5 5 6 7 8 10 10 9 8 7 6 5 4 5 5 4 3 3 2 2 3
3 3 3 3 3 3 2 2 3 3 3 4 4 4 5 6 8 9 9 6 5 6 6 5 5 5 7 6 8 9 9 11 10 7 6 7 6 6 5 4 5 4 4
3 3 3 3 3 2 2 3 3 2 3 3 3 4 4 5 8 9 9 6 6 6 6 6 6 6 6 6 6 6 6 7 8 7 7 7 5 5 6 5 4 2 1
3 3 3 3 3 2 3 3 2 2 3 3 3 3 4 5 7 8 8 5 5 6 6 6 6 6 9 9 7 7 6 6 7 9 9 8 8 8 6 3 3 3 3
4 4 3 3 3 3 3 3 2 2 3 3 3 3 4 5 7 8 8 4 5 5 5 6 9 9 10 10 7 7 7 6 4 4 5 6 5 6 8 6 5 5 3
4 4 3 3 3 3 3 2 2 2 2 2 3 3 4 5 6 8 8 4 4 4 4 4 5 10 11 10 9 7 8 6 4 4 3 3 3 3 4 4 4 5 5
4 3 3 3 3 2 2 2 2 2 2 3 3 3 3 4 5 7 9 9 7 5 4 4 4 9 10 10 8 8 8 6 3 3 3 3 3 3 3 3 3 3 3
4 4 3 3 3 2 2 2 2 2 2 2 3 3 3 3 4 7 9 9 9 6 4 7 7 8 8 7 8 7 5 3 3 3 4 3 3 3 2 2 2 2 1
3 3 3 3 3 2 1 2 2 2 2 3 3 3 3 3 3 3 4 4 6 6 4 5 7 7 6 5 4 4 3 4 4 4 3 2 2 2 3 3 2 2 2
3 3 3 3 2 2 1 1 2 3 4 4 3 3 3 3 4 6 4 3 3 3 2 2 2 2 2 1 2 2 2 3 3 3 3 3 3 3 3 2 2 2 3
2 2 2 2 2 2 2 2 4 4 5 5 5 5 4 5 6 7 7 6 5 4 2 2 2 2 2 2 2 2 2 2 3 3 3 3 3 3 3 2 2 3 3
2 2 2 2 2 2 2 2 3 3 4 5 5 6 5 6 6 5 5 5 4 2 2 2 2 2 2 2 3 3 3 3 3 3 3 3 3 3 3 3 3 2 3
2 3 2 2 2 2 2 2 2 2 3 3 5 6 6 5 5 4 4 2 1 1 1 2 2 2 2 2 2 2 2 2 2 3 3 3 3 3 3 3 3 3 3
2 2 2 1 1 2 2 2 2 2 2 3 3 4 6 5 4 4 3 1 0 1 1 1 2 2 2 2 2 2 3 3 3 3 3 3 3 3 3 3 3 4 3
2 3 2 1 1 1 1 1 1 2 2 2 3 3 3 3 1 2 1 1 1 1 1 1 2 2 2 2 2 2 2 3 3 3 3 3 3 3 3 3 3 3 3
1 2 3 2 1 1 1 1 1 1 2 2 2 3 5 2 1 1 1 1 1 1 1 1 1 1 2 1 2 2 2 2 2 3 3 3 3 3 2 3 3 3 3
1 1 1 1 1 1 1 1 1 1 2 2 2 3 5 2 1 1 2 2 2 1 1 1 1 1 1 1 2 2 2 2 2 3 3 3 3 3 3 3 3 2 2
1 1 1 1 1 2 2 1 1 2 2 2 2 2 2 2 1 1 2 2 2 2 1 1 1 1 1 1 1 2 3 3 3 3 3 3 3 3 3 3 4 3 3
1 1 1 1 1 1 1 1 2 2 2 2 2 2 1 1 2 2 2 2 2 2 1 1 1 1 2 1 1 1 1 2 2 3 4 4 3 3 3 3 3 4 3
1 1 1 1 1 1 1 1 2 1 1 2 1 1 2 2 2 2 2 2 2 2 2 2 1 1 2 2 2 2 3 4 3 2 3 3 4 3 3 3 3 3 3
0 1 1 1 1 1 1 1 2 1 1 2 2 2 2 2 2 2 2 2 2 2 2 2 2 2 3 2 2 3 4 4 4 3 2 3 4 3 3 3 4 3 4
Wind_Direction
270 260 249 233 215 210 214 214 213 212 203 198 202 200 198 198 197 195 204 202 209 219 215 210 219 205 203 209 204 196 198 186 216 257 239 241 214 236 265 239 226 223 240
271 259 247 247 224 215 227 227 210 206 208 207 203 204 207 209 205 202 210 210 208 213 215 210 220 212 206 204 200 202 206 197 190 229 247 221 223 226 238 241 245 241 231
270 259 248 245 233 227 227 228 215 205 209 209 205 207 211 214 213 212 210 213 212 213 213 213 214 207 211 205 206 207 207 211 195 203 237 230 227 209 241 274 254 242 255
266 257 254 249 243 237 231 222 217 209 209 210 213 214 216 218 218 219 217 217 215 217 218 218 213 209 212 203 209 207 197 197 197 200 223 229 218 207 183 214 255 236 255
279 270 266 265 258 244 235 228 217 214 222 217 216 219 220 222 222 219 216 217 214 216 219 221 220 221 224 219 215 203 194 197 200 206 219 226 222 204 211 205 234 262 265
284 276 279 275 263 250 243 231 221 220 222 217 218 222 226 233 240 238 230 222 221 218 221 226 225 227 231 234 233 228 215 206 205 210 222 224 227 220 209 206 206 239 260
288 285 283 273 263 256 249 232 229 226 227 228 224 225 229 235 244 243 240 230 223 223 221 226 232 229 236 225 232 237 235 234 225 214 220 225 222 215 203 210 214 225 245
295 290 286 278 270 265 251 244 242 239 237 238 240 236 240 244 248 247 245 232 227 228 225 224 226 226 226 223 221 228 234 235 232 225 221 225 226 214 206 209 212 228 269
300 295 288 274 268 265 258 253 245 238 246 247 248 241 243 251 251 252 249 235 230 230 229 228 227 226 237 234 224 225 235 241 246 245 240 237 235 229 212 184 187 200 240
297 294 292 285 269 261 260 261 257 244 245 250 261 253 248 250 253 253 250 240 238 237 231 230 236 237 241 236 224 218 230 233 224 240 245 243 230 221 219 204 198 204 220
306 304 300 291 277 268 264 258 253 253 250 250 260 263 252 250 255 251 248 242 238 240 239 233 232 241 243 239 237 225 235 233 212 217 221 213 201 204 209 209 208 208 215
312 309 303 295 284 271 253 258 251 236 238 249 256 265 260 257 256 255 250 247 245 241 244 240 239 246 244 242 240 241 241 233 202 202 211 213 208 213 214 212 213 219 224
316 309 307 306 296 282 252 249 254 237 231 242 246 255 264 258 255 259 256 254 254 248 244 247 252 250 245 239 240 243 231 205 194 206 219 223 219 213 204 199 195 197 223
315 314 317 316 306 291 267 250 241 234 235 241 245 255 265 260 253 252 248 250 253 250 247 250 254 250 243 243 245 233 219 209 203 209 214 212 196 195 206 204 205 202 226
314 315 319 319 319 315 298 265 264 246 240 245 244 244 250 258 260 266 263 252 238 235 231 223 230 227 220 225 232 232 221 209 207 198 195 195 200 207 216 213 211 215 220
314 319 316 315 317 316 313 318 313 306 299 290 287 278 269 269 273 269 268 270 269 257 232 219 221 214 217 218 221 231 222 213 211 203 201 201 206 210 216 218 215 214 219
288 300 303 312 318 316 311 307 312 321 323 317 308 299 295 292 288 283 281 278 269 251 221 219 221 220 224 224 222 219 223 216 206 204 206 207 207 208 206 211 211 217 222
291 297 304 297 297 298 297 299 303 310 317 319 319 316 314 312 314 315 314 315 291 254 212 216 223 229 228 227 222 219 222 212 199 200 202 203 203 203 205 212 211 213 220
287 285 281 284 286 289 294 298 301 302 305 311 320 317 324 328 330 332 333 313 249 257 254 241 230 224 228 223 219 216 216 217 205 196 199 201 203 201 209 215 214 221 221
281 296 307 298 296 303 304 305 307 309 311 314 313 313 321 331 340 340 339 337 289 274 271 256 248 232 230 225 219 215 214 215 204 199 200 203 205 203 206 211 211 216 219
294 297 315 319 299 290 295 302 304 310 314 316 316 325 337 344 339 340 337 324 295 274 273 273 262 239 226 223 216 212 210 211 205 199 199 201 199 204 207 203 209 216 208
296 302 302 297 302 306 309 307 313 312 312 312 319 332 340 355 347 338 336 330 324 315 303 288 281 271 245 220 203 207 212 211 208 199 196 199 197 196 197 198 204 204 198
294 297 303 305 311 318 330 327 320 316 317 319 326 334 340 344 342 333 326 328 331 333 332 324 305 310 312 293 228 206 213 221 213 201 195 194 193 197 194 197 199 196 199
284 284 294 305 312 308 309 315 317 318 320 324 326 326 329 328 324 323 322 328 334 334 331 325 305 294 300 311 300 260 236 233 220 203 189 186 193 194 194 198 199 196 197
300 296 293 287 289 292 301 309 311 313 314 313 313 316 322 323 319 318 319 325 331 330 325 318 307 301 297 288 278 258 247 254 249 212 178 177 184 191 193 197 195 194 198
298 289 292 293 288 286 289 294 298 303 303 306 306 306 308 306 305 306 311 316 319 319 316 314 309 301 300 289 272 265 270 268 251 225 188 175 180 190 190 190 188 189 189